Regional Weather Roundup
Issued by NWS

Home | Current Version | Previous Version | Text Only | Print | Product List | Glossary Off
Versions: 1 2 3 4 5 6 7 8 9 10 11 12 13 14 15 16 17 18 19 20 21 22 23 24 25 26 27 28 29 30 31 32 33 34 35 36 37 38 39 40 41 42 43 44 45 46 47 48 49 50

000
ASUS43 KBIS 232010
RWRND

NORTH DAKOTA REGIONAL WEATHER ROUNDUP
NATIONAL WEATHER SERVICE BISMARCK ND
300 PM CDT TUE MAY 23 2017

NOTE: "FAIR" INDICATES FEW OR NO CLOUDS BELOW 12,000 FEET WITH NO
SIGNIFICANT WEATHER AND/OR OBSTRUCTIONS TO VISIBILITY.


NDZ001>003-009>011-017-232100-
NORTHWEST NORTH DAKOTA

CITY           SKY/WX    TMP DP  RH WIND       PRES   REMARKS
WILLISTON      FAIR      71  32  23 VRB3      30.07F
MINOT          FAIR      69  33  26 NW12      30.06F
MINOT AFB      SUNNY     68  34  28 NE9       30.05F
$$

NDZ018>021-031>035-040>046-232100-
SOUTHWEST NORTH DAKOTA

CITY           SKY/WX    TMP DP  RH WIND       PRES   REMARKS
BISMARCK       PTSUNNY   65  35  33 NE16G28   30.05F
DICKINSON      FAIR      62  32  32 NE6       30.08F
GARRISON         N/A     66  36  32 N10G16    30.06F
HETTINGER ARPT MOSUNNY   64  33  31 N12G22    30.09F
$$

NDZ004>008-012>016-024-026-027-054-232100-
NORTHEAST NORTH DAKOTA

CITY           SKY/WX    TMP DP  RH WIND       PRES   REMARKS
GRAND FORKS    PTSUNNY   63  44  50 NE18G25   29.98F
GRND FRKS AFB  PTSUNNY   61  42  49 NE18G25   29.99F
DEVILS LAKE    CLOUDY    60  39  45 NE18      30.04S
$$

NDZ022-023-025-028>030-036>039-047>053-232100-
SOUTHEAST NORTH DAKOTA

CITY           SKY/WX    TMP DP  RH WIND       PRES   REMARKS
FARGO          CLOUDY    54  44  69 N21G28    29.96R
JAMESTOWN      CLOUDY    54  42  64 N18       30.00F
$$




USA.gov is the U.S. government's official web portal to all federal, state and local government web resources and services.